Simultaneous Nadir Overpasses (SNOs) Predictions

Prediction of SNOs between GOES-15 and LANDSAT-8 Satellite Orbit:

Table of predicted SNOs for the next 14.0 days since TLE Epoch: 5/2/2020
Index Date Time (GOES-15) GOES-15 Lat,Lon LANDSAT-8 Lat,Lon Distance(km) Time Diff (sec)
1 05/03/2020 06:47:55 -0.24,-128.24 -0.34,-128.67 49.79 80
2 05/05/2020 06:33:03 -0.24,-128.26 0.32,-125.72 288.56 80
3 05/05/2020 18:54:17 0.23,-128.29 0.79,-130.88 294.33 80
4 05/07/2020 18:44:46 0.23,-128.30 0.13,-127.93 43.49 80
5 05/09/2020 18:32:33 0.23,-128.31 -0.47,-124.97 380.56 80
6 05/10/2020 06:53:56 -0.22,-128.29 -0.62,-130.16 212.64 80
7 05/12/2020 06:39:03 -0.21,-128.29 -0.01,-127.20 123.88 80
8 05/12/2020 19:00:19 0.21,-128.32 1.06,-132.37 460.26 80
9 05/14/2020 06:26:52 -0.21,-128.30 0.66,-124.25 460.17 80
10 05/14/2020 18:48:06 0.20,-128.32 0.46,-129.41 123.90 80




NCC Satellite Simultaneous Nadir Overpasses (SNOs) Prediction Service
